#timestamp,LO_Frequency,Hit,StdDev 
1620262815.0,286046987.4,Y
1620262815.9,286046987.4,P
1620262835.8,286047005.9,P
1620262855.6,286047006.0,N
1620262875.4,286046994.9,N
1620262895.3,286046998.1,N
1620262915.1,286046997.4,N
1620262935.8,286047004.2,N
1620262955.7,286047003.1,N
1620262975.5,286046999.0,N
1620262995.4,286046999.4,N
1620263015.2,286046998.8,N
1620263035.0,286047000.0,N
1620263035.9,286047000.0,N
1620263055.8,286047003.7,N
1620263075.6,286046999.4,N
1620263095.5,286046995.2,N
1620263115.3,286047001.5,N
1620263135.1,286047006.8,N
1620263155.9,286047007.6,N
1620263175.7,286047003.4,N
1620263195.5,286046996.7,N
1620263215.4,286046996.1,N
1620263235.2,286046997.8,N
1620263255.1,286046990.4,N
1620263256.0,286046990.4,N
1620263275.8,286046997.4,N
1620263295.6,286046993.8,N
1620263315.5,286046984.8,N
1620263335.3,286046986.9,N
1620263355.1,286046985.7,N
1620263375.9,286046990.3,N
1620263395.7,286046987.5,N
1620263415.6,286046988.4,N
1620263435.4,286046984.7,N
1620263455.2,286046988.5,N
1620263475.1,286046988.0,N
1620263476.0,286046988.0,N
1620263495.8,286046982.0,N
1620263515.6,286046984.9,N
1620263535.5,286046992.7,N
1620263555.3,286046986.0,N
1620263575.2,286046983.7,N
1620263595.9,286046986.9,N
1620263615.7,286046986.3,N
1620263635.6,286046986.9,N
1620263655.4,286046992.1,N
1620263675.3,286046996.5,N
1620263695.1,286047000.9,N
1620263696.0,286047000.9,N
1620263715.8,286046994.9,N
1620263735.7,286046998.2,N
1620263755.5,286046998.2,N
1620263775.4,286047000.7,N
1620263795.2,286046999.8,N
1620263815.0,286046999.0,N
1620263815.9,286046999.0,N
1620263835.8,286046995.0,N
1620263855.6,286047001.9,N
1620263875.5,286047006.5,N
1620263895.3,286047010.2,N
1620263915.1,286047010.0,N
1620263935.9,286047003.4,N
1620263955.7,286047012.4,N
1620263975.6,286047016.5,N
1620263995.4,286047020.3,N
1620264015.2,286047017.4,N
1620264035.1,286047019.6,N
1620264036.0,286047019.6,N
1620264055.8,286047020.9,N
1620264075.6,286047026.3,N
1620264095.5,286047024.6,N
1620264115.3,286047022.6,N
1620264135.2,286047023.8,N
1620264155.0,286047022.6,N
1620264155.9,286047022.6,N
1620264175.8,286047022.6,N
1620264195.6,286047028.2,N
1620264215.4,286047025.7,N
1620264235.3,286047016.8,N
1620264255.1,286047017.8,N
1620264275.9,286047016.4,N
1620264295.7,286047025.1,N
1620264315.5,286047027.6,N
1620264335.4,286047021.0,N
1620264355.2,286047017.5,N
1620264375.0,286047017.4,N
1620264375.9,286047017.4,N
1620264395.8,286047022.0,Y
1620264415.6,286047000.5,P
1620264435.5,286046997.3,N
1620264455.3,286047000.8,N
1620264475.1,286046999.9,N
1620264495.9,286047001.5,N
1620264515.7,286046998.1,N
1620264535.5,286047003.1,N
1620264555.4,286047004.9,N
1620264575.2,286047004.1,N
1620264595.1,286047000.9,N
1620264596.0,286047000.9,N
1620264615.8,286046999.5,N
1620264635.6,286046990.5,N
1620264655.5,286046994.2,N
1620264675.3,286047001.2,N
1620264725.2,286047004.8,E
1620264735.1,286047002.6,N
1620264755.8,286047004.3,P
1620264775.7,286047010.3,P
1620264795.5,286047010.4,Y
1620264815.4,286047000.5,P
1620264835.2,286046997.8,N
1620264855.0,286046997.6,N
1620264855.9,286046997.6,N
1620264875.8,286047001.3,N
1620264895.6,286047002.6,N
1620264915.4,286046991.8,N
1620264935.3,286046996.0,N
1620264955.1,286046995.3,N
1620264975.9,286046996.0,N
1620264995.7,286046996.3,N
1620265015.5,286046994.9,N
1620265035.4,286047007.7,N
1620265055.2,286047012.8,Y
1620265075.1,286047010.2,P
1620265076.0,286047010.2,N
1620265095.8,286047015.1,N
1620265115.6,286047009.3,N
1620265135.5,286047010.1,N
1620265155.3,286047010.6,N
1620265175.1,286047006.2,N
1620265195.9,286047009.0,N
1620265215.7,286047012.5,N
1620265235.6,286047012.9,Y
1620265255.4,286047009.1,P
1620265275.2,286047007.7,P
1620265295.1,286047003.1,P
1620265296.0,286047003.1,N
1620265315.8,286047001.7,N
1620265335.6,286047003.6,N
1620265355.5,286047000.5,N
1620265375.3,286047002.6,N
1620265395.2,286046999.4,N
1620265415.9,286047001.5,N
1620265435.7,286047004.4,N
1620265455.6,286046999.8,N
1620265475.4,286046997.7,N
1620265495.3,286046998.3,N
1620265515.1,286047001.3,N
1620265516.0,286047001.3,N
1620265535.8,286047015.1,Y
1620265555.7,286047015.7,P
1620265575.5,286047013.0,N
1620265595.4,286047012.1,N
1620265615.2,286047014.6,N
1620265635.0,286047014.5,Y
1620265635.9,286047014.5,P
1620265655.8,286047004.8,P
1620265675.6,286047000.2,N
1620265695.4,286046995.8,N
1620265715.3,286047002.1,N
1620265735.1,286047017.1,N
1620265755.9,286047013.3,N
1620265775.7,286047006.6,N
1620265795.5,286047002.9,N
1620265815.4,286046994.9,N
1620265835.2,286046990.7,N
1620265855.0,286046992.6,N
1620265856.0,286046992.6,N
1620265875.8,286046993.8,N
1620265895.6,286046990.6,N
1620265915.5,286046996.7,N
1620265935.3,286047001.3,N
1620265955.1,286047002.8,N
1620265975.9,286047003.2,N
1620265995.7,286047010.8,N
1620266015.6,286047011.6,N
1620266035.4,286047018.2,N
1620266055.2,286047023.4,N
1620266075.1,286047023.3,N
1620266076.0,286047023.3,N
1620266095.8,286047027.5,N
1620266115.6,286047029.3,N
1620266135.5,286047036.3,Y
1620266155.3,286047025.3,P
1620266175.2,286047021.4,N
1620266195.9,286047020.8,N
1620266215.7,286047022.6,Y
1620266235.6,286047007.6,P
1620266255.4,286047008.6,N
1620266275.3,286047003.7,N
1620266295.1,286047005.9,N
1620266315.8,286047003.3,N
1620266335.7,286047001.8,N
1620266355.5,286046999.5,N
1620266375.4,286046994.8,N
1620266395.2,286046992.7,N
